Find Starlink 33641

NORAD ID: 63718 Int'l Des: 2025-087 Owner: SPXS Country: US Constellation: starlink operational
LEOCIRCULAR

当前视图

正在加载3D地球...

关于 Starlink 33641

正在加载描述...

即将过境

Passes for default location (London). Set your location on the main map for personalized predictions.

高度历史

Loading altitude history...

两行轨道根数

1 63718U 25087X 26149.55061320 .00023355 00000-0 76240-3 0 9991
2 63718 53.1598 203.6890 0001453 88.5488 271.5680 15.31682873 61583
Epoch: May 29, 2026 • Age: 14 hours

当前状态

高度 476.3 km
速度 7.63 km/s
星下点 53.25°N, 8.5°W
发射日期 Apr 28, 2025
运行时间 1 years
类型 internet

技术详情

分类 Payload
质量 575.00 kg
干质量 530.00 kg
总质量 575.00 kg
长度 0.30 m
直径 4.10 m
跨度 29.00 m
形状 Box + pan
制造商 SPXS
平台类型 Starlink V2MO
阶段状态 In Orbit
所有者/国家 SPXS/US

Most Searched